Regional Weather Roundup
Issued by NWS Northern Indiana

Home | Current Version | Previous Version | Graphics & Text | Print | Product List | Glossary On
Versions: 1 2 3 4 5 6 7 8 9 10 11 12 13 14 15 16 17 18 19 20 21 22 23 24 25 26 27 28 29 30 31 32 33 34 35 36 37 38 39 40 41 42 43 44 45 46 47 48 49 50
000
ASUS43 KIWX 280610
RWRIWX

KIWX WEATHER ROUNDUP
NATIONAL WEATHER SERVICE NORTHERN INDIANA
200 AM EDT THU AUG 28 2014

NOTE: "FAIR" INDICATES FEW OR NO CLOUDS BELOW 12,000 FEET WITH NO
SIGNIFICANT WEATHER AND/OR OBSTRUCTIONS TO VISIBILITY.

* THESE STATIONS ARE NOT UNDER NWS QUALITY CONTROL. THEY ALSO MAY NOT
  REPORT WEATHER SUCH AS PRECIPITATION OR FOG.

INZ001>027-280700-
NORTHERN INDIANA

CITY           SKY/WX    TMP DP  RH WIND       PRES   REMARKS
GARY*          FAIR      66  63  88 E5        30.14R
VALPARAISO     FAIR      60  58  92 CALM      30.14R
6HR MIN TEMP:  59; 6HR MAX TEMP:  69;

MICHIGAN CITY* FAIR      57  57 100 CALM      30.14R
LAPORTE*       FAIR      60  57  89 CALM      30.14R
6HR MIN TEMP:  60; 6HR MAX TEMP:  68;

KNOX*          FAIR      60  57  90 CALM      30.12S
6HR MIN TEMP:  41; 6HR MAX TEMP:  88;

SOUTH BEND     FAIR      63  57  81 NE3       30.14R
6HR MIN TEMP:  63; 6HR MAX TEMP:  69;

GOSHEN         FAIR      64  60  87 CALM      30.13R
6HR MIN TEMP:  63; 6HR MAX TEMP:  74;

MONTICELLO*    FAIR      63  61  93 NE3       30.10S
6HR MIN TEMP:  63; 6HR MAX TEMP:  75;

LOGANSPORT*    FAIR      63  59  88 NE5       30.11F
ROCHESTER*     FAIR      64  61  88 CALM      30.12S
WARSAW*        FAIR      61  61 100 CALM      30.12S
ANGOLA*        CLEAR     63  59  88 N5        30.12S
FORT WAYNE     FAIR      64  59  83 N5        30.11S
6HR MIN TEMP:  64; 6HR MAX TEMP:  75;

HUNTINGTON*    FAIR      63  61  92 CALM      30.11S
6HR MIN TEMP:  63; 6HR MAX TEMP:  74;

PERU/GRISSOM   FAIR      64  64 100 NE6       30.10F
6HR MIN TEMP:  64; 6HR MAX TEMP:  76;

MARION*        FAIR      64  60  86 NE5       30.11S
6HR MIN TEMP:  40; 6HR MAX TEMP:  88;


$$
INZ028>050-280700-
CENTRAL INDIANA

CITY           SKY/WX    TMP DP  RH WIND       PRES   REMARKS
LAFAYETTE      FAIR      65  60  84 NE7       30.10S
6HR MIN TEMP:  65; 6HR MAX TEMP:  76;

KOKOMO*        FAIR      64  61  88 NE6       30.11S
6HR MIN TEMP:  64; 6HR MAX TEMP:  77;

MUNCIE*        FAIR      65  61  87 NE5       30.10R
6HR MIN TEMP:  65; 6HR MAX TEMP:  76;

INDIANAPOLIS   FAIR      70  62  76 NE8       30.07S
6HR MIN TEMP:  70; 6HR MAX TEMP:  81;


$$
MIZ043>046-050>051-056>058-064>065-071>073-077>080-280700-
SOUTHWEST LOWER MICHIGAN

CITY           SKY/WX    TMP DP  RH WIND       PRES   REMARKS
BATTLE CREEK   FAIR      62  53  72 NE7       30.15R
6HR MIN TEMP:  62; 6HR MAX TEMP:  72;

BENTON HARBOR  FAIR      59  55  87 NE5       30.13S
6HR MIN TEMP:  58; 6HR MAX TEMP:  67;

COLDWATER*     FAIR      63  60  90 N7        30.12F
6HR MIN TEMP:  62; 6HR MAX TEMP:  72;

HILLSDALE*     FAIR      57  57 100 CALM      30.12F
HOLLAND        FAIR      61  54  77 NE3       30.16R
6HR MIN TEMP:  61; 6HR MAX TEMP:  69;

GRAND RAPIDS   FAIR      58  58 100 NE5       30.16R
6HR MIN TEMP:  58; 6HR MAX TEMP:  72;

KALAMAZOO      FAIR      62  55  77 NE5       30.14S
6HR MIN TEMP:  62; 6HR MAX TEMP:  71;

STURGIS*       FAIR      61  59  94 N6        30.12S
THREE RIVERS*  FAIR      63  58  83 NE5       30.13S

$$
OHZ001>008-015>018-024>025-280700-
NORTHWEST OHIO

CITY           SKY/WX    TMP DP  RH WIND       PRES   REMARKS
WAUSEON*       FAIR      59  57  94 N3        30.10F
DEFIANCE       FAIR      63  59  87 CALM      30.11S
6HR MIN TEMP:  63; 6HR MAX TEMP:  76;

FINDLAY        MOCLDY    67  63  87 N3        30.09S
6HR MIN TEMP:  67; 6HR MAX TEMP:  75;

TOLEDO EXPRESS FAIR      62  58  86 CALM      30.10S
6HR MIN TEMP:  62; 6HR MAX TEMP:  74;

TOLEDO METCALF FAIR      67  61  81 NE5       30.11S
6HR MIN TEMP:  67; 6HR MAX TEMP:  74;

LIMA           FAIR      65  62  90 CALM      30.10S FOG
6HR MIN TEMP:  65; 6HR MAX TEMP:  76;


$$
&&



USA.gov is the U.S. government's official web portal to all federal, state and local government web resources and services.